Regional Weather Roundup
Issued by NWS

Home | Current Version | Previous Version | Text Only | Print | Product List | Glossary Off
Versions: 1 2 3 4 5 6 7 8 9 10 11 12 13 14 15 16 17 18 19 20 21 22 23 24 25 26 27 28 29 30 31 32 33 34 35 36 37 38 39 40 41 42 43 44 45 46 47 48 49 50

000
ASUS43 KIND 090259
RWRIN

WEATHER ROUNDUP FOR INDIANA
NATIONAL WEATHER SERVICE INDIANAPOLIS IN
1000 PM EST MON FEB 08 2016

NOTE: "FAIR" INDICATES FEW OR NO CLOUDS BELOW 12,000 FEET WITH NO
SIGNIFICANT WEATHER AND/OR OBSTRUCTIONS TO VISIBILITY.

* - STATION DOES NOT REPORT WEATHER SUCH AS PRECIPITATION OR FOG.

+ - STATION NOT QUALITY CONTROLLED BY THE NATIONAL WEATHER SERVICE.
    USE DATA WITH CAUTION...ESPECIALLY DEWPOINT AND RELATIVE
    HUMIDITY OBSERVATIONS.

INZ001>003-010>013-019-020-090400-
NORTHWEST INDIANA

CITY           SKY/WX    TMP DP  RH WIND       PRES   REMARKS
GARY /AIRPORT/ FLURRIES  28  21  74 W14       29.74F WCI  17
RENSSELAER +   CLOUDY    27  19  74 W10G18    29.75S WCI  17

$$

LMZ046-743>745-090400-
SOUTHERN LAKE MICHIGAN

STATION/POSITION TIME  TEMP    WIND        PRES    WAVE
                       AIR SEA DIR/SP/G            HT
                 (UTC) (F)     (DEG/KT/KT) (MB)    (FT)
BURNS HARBOR     0240   28     280/ 14/ 17 1007.1F
MICHIGAN CITY    0200   28     260/ 16/ 18   N/A

$$

INZ004-005-014>016-021>024-090400-
NORTH CENTRAL INDIANA

CITY           SKY/WX    TMP DP  RH WIND       PRES   REMARKS
GOSHEN         LGT SNOW  28  25  88 W13       29.68S FOG     WCI  17
SOUTH BEND     LGT SNOW  26  24  92 W10       29.70S FOG     WCI  16

$$

INZ006>009-017-018-025>027-090400-
NORTHEAST INDIANA

CITY           SKY/WX    TMP DP  RH WIND       PRES   REMARKS
ANGOLA *+      CLOUDY    30  27  86 NW8       29.64S WCI  23
FORT WAYNE     CLOUDY    27  24  89 W13       29.69S WCI  16

$$

INZ028-029-035-036-043>045-051>053-090400-
WEST CENTRAL INDIANA

CITY           SKY/WX    TMP DP  RH WIND       PRES   REMARKS
GREENCASTLE +  FLURRIES  21  12  68 W7        29.80S WCI  13
LAFAYETTE      CLOUDY    23  17  78 W12       29.78S WCI  12
TERRE HAUTE    CLOUDY    22  15  75 W15       29.83F WCI   9

$$

INZ030>032-037>040-046>048-054>057-064-065-090400-
CENTRAL INDIANA

CITY           SKY/WX    TMP DP  RH WIND       PRES   REMARKS
COLUMBUS       LGT SNOW  23  21  93 W9        29.81R FOG     WCI  13
INDIANAPOLIS   FLURRIES  22  16  78 W13       29.76F WCI  10
-EAGLE CREEK   CLOUDY    22  17  81 W10       29.76F WCI  11
KOKOMO *+      CLOUDY    25  18  74 W20       29.72F WCI  11
MT COMFORT *+  CLOUDY    23  18  80 W12       29.76S WCI  12
SHELBYVILLE    FLURRIES  24  16  71 W12       29.77R WCI  13

$$

INZ033-034-041-042-049-050-058-059-090400-
EAST CENTRAL INDIANA

CITY           SKY/WX    TMP DP  RH WIND       PRES   REMARKS
MUNCIE         FLURRIES  26  19  74 W14G23    29.72S WCI  14

$$

INZ060-061-067>069-081>083-085>088-090400-
SOUTHWEST INDIANA

CITY           SKY/WX    TMP DP  RH WIND       PRES   REMARKS
EVANSVILLE     LGT SNOW  25  17  72 NW8       29.91S WCI  16
HUNTINGBURG *+ CLOUDY    21  16  79 NW10      29.88S WCI  10

$$

INZ062-063-066-070>080-084-089>092-090400-
SOUTH CENTRAL AND SOUTHEAST INDIANA

CITY           SKY/WX    TMP DP  RH WIND       PRES   REMARKS
BLOOMINGTON    LGT SNOW  21  16  81 W8        29.80S WCI  11
MADISON *+     CLOUDY    25  21  86 W9        29.81R WCI  15
SEYMOUR +      PTCLDY    25  18  74 W8        29.81S WCI  16

$$





USA.gov is the U.S. government's official web portal to all federal, state and local government web resources and services.